Simultaneous Nadir Overpasses (SNOs) Predictions

Prediction of SNOs between AQUA and METOP-B Satellite Orbit:

Table of predicted SNOs for the next 14.0 days since TLE Epoch: 10/15/2023
Index Date (AQUA) Time (AQUA) Lat,Lon (AQUA) SZA (AQUA ) Date (METOP-B) Time (METOP-B) Lat,Lon (METOP-B) SZA (METOP-B ) Distance(km) Time Diff (sec)
1 10/16/2023 13:26:06 -74.89, 154.81 96.29 10/16/2023 13:25:14 -74.88, 154.84 96.29 0.96 52
2 10/16/2023 14:15:32 74.94, -37.68 83.78 10/16/2023 14:15:53 74.92, -37.72 83.76 2.65 21
3 10/19/2023 06:28:26 74.89, 79.24 84.71 10/19/2023 06:27:28 74.90, 79.32 84.72 2.47 58
4 10/19/2023 07:17:50 -74.95,-113.26 95.22 10/19/2023 07:18:09 -74.94,-113.25 95.23 1.71 19
5 10/21/2023 23:30:43 -74.90, 3.68 94.31 10/21/2023 23:29:45 -74.91, 3.76 94.31 2.41 58
6 10/22/2023 00:20:09 74.97, 171.15 85.77 10/22/2023 00:20:24 74.94, 171.18 85.74 3.49 15
7 10/24/2023 16:32:59 74.88, -71.79 86.62 10/24/2023 16:32:00 74.89, -71.86 86.63 2.56 59
8 10/24/2023 17:22:24 -74.98, 95.59 93.27 10/24/2023 17:22:40 -74.98, 95.71 93.27 3.63 16
9 10/27/2023 09:35:11 -74.89,-147.34 92.45 10/27/2023 09:34:15 -74.92,-147.37 92.42 2.96 56
10 10/27/2023 10:24:37 74.97, 20.11 87.65 10/27/2023 10:24:53 74.99, 20.17 87.67 3.22 16



Historial Predications of SNOs between AQUA and METOP-B
